| time (UTC) | temp C | wind direction | speed KPH | gust KPH | rain 1hr cm | rain 24hr cm | rain mn cm | humidity % | barometer mb |
| 20260509201004 | 31 | 29 | 0.0 | 0.0 | 0.00 | 0.00 | 0.00 | 70 | 1008.7 |
| 20260509200004 | 30 | 29 | 0.0 | 1.6 | 0.00 | 0.00 | 0.00 | 71 | 1008.9 |
| 20260509195004 | 30 | 29 | 0.0 | 0.0 | 0.00 | 0.00 | 0.00 | 71 | 1009.0 |
| 20260509194004 | 30 | 29 | 0.0 | 0.0 | 0.00 | 0.00 | 0.00 | 75 | 1009.2 |
| 20260509193005 | 30 | 29 | 0.0 | 0.0 | 0.00 | 0.00 | 0.00 | 73 | 1009.2 |
| 20260509192004 | 31 | 29 | 0.0 | 0.0 | 0.00 | 0.00 | 0.00 | 73 | 1009.4 |
| 20260509191004 | 31 | 30 | 0.0 | 0.0 | 0.00 | 0.00 | 0.00 | 73 | 1009.3 |
| 20260509190004 | 30 | 30 | 0.0 | 0.0 | 0.00 | 0.00 | 0.00 | 76 | 1009.6 |
| 20260509184004 | 30 | 30 | 0.0 | 1.6 | 0.00 | 0.00 | 0.00 | 75 | 1009.8 |
| 20260509183004 | 30 | 30 | 0.0 | 1.6 | 0.00 | 0.00 | 0.00 | 77 | 1009.9 |
| 20260509182004 | 29 | 30 | 0.0 | 3.2 | 0.00 | 0.00 | 0.00 | 77 | 1010.1 |
| 20260509180005 | 28 | 30 | 0.0 | 3.2 | 0.00 | 0.00 | 0.00 | 77 | 1010.3 |
| 20260509175004 | 28 | 30 | 0.0 | 0.0 | 0.00 | 0.00 | 0.00 | 76 | 1010.5 |
| 20260509174004 | 28 | 30 | 0.0 | 0.0 | 0.00 | 0.00 | 0.00 | 79 | 1010.6 |
| 20260509172004 | 27 | 30 | 0.0 | 4.8 | 0.00 | 0.00 | 0.00 | 82 | 1010.4 |
| 20260509171004 | 27 | 32 | 1.6 | 4.8 | 0.00 | 0.00 | 0.00 | 82 | 1010.1 |
| 20260509170004 | 27 | 32 | 0.0 | 0.0 | 0.00 | 0.00 | 0.00 | 83 | 1010.5 |
| 20260509165004 | 27 | 32 | 0.0 | 0.0 | 0.00 | 0.00 | 0.00 | 83 | 1010.8 |
| 20260509164004 | 27 | 32 | 0.0 | 0.0 | 0.00 | 0.00 | 0.00 | 83 | 1010.7 |
| 20260509163004 | 27 | 32 | 0.0 | 1.6 | 0.00 | 0.00 | 0.00 | 82 | 1010.8 |
| 20260509162009 | 27 | 32 | 0.0 | 0.0 | 0.00 | 0.00 | 0.00 | 84 | 1010.9 |
| 20260509161004 | 26 | 32 | 0.0 | 3.2 | 0.00 | 0.00 | 0.00 | 84 | 1011.1 |
| 20260509160004 | 27 | 32 | 0.0 | 3.2 | 0.00 | 0.00 | 0.00 | 83 | 1011.0 |
| 20260509154003 | 26 | 32 | 0.0 | 0.0 | 0.00 | 0.00 | 0.00 | 86 | 1011.0 |
| 20260509153005 | 26 | 32 | 0.0 | 0.0 | 0.00 | 0.00 | 0.00 | 87 | 1010.8 |
| 20260509152004 | 25 | 32 | 0.0 | 6.4 | 0.00 | 0.00 | 0.00 | 88 | 1010.7 |
| 20260509150004 | 25 | 17 | 0.0 | 3.2 | 0.00 | 0.00 | 0.00 | 89 | 1010.6 |
| 20260509145004 | 24 | 16 | 0.0 | 3.2 | 0.00 | 0.00 | 0.00 | 90 | 1010.6 |
| 20260509143004 | 23 | 16 | 0.0 | 1.6 | 0.00 | 0.00 | 0.00 | 92 | 1010.3 |
| 20260509142004 | 23 | 16 | 0.0 | 0.0 | 0.00 | 0.00 | 0.00 | 92 | 1010.1 |
| 20260509141003 | 23 | 16 | 0.0 | 6.4 | 0.00 | 0.00 | 0.00 | 92 | 1010.0 |
| 20260509135005 | 23 | 16 | 0.0 | 0.0 | 0.00 | 0.00 | 0.00 | 93 | 1010.6 |
| 20260509134004 | 23 | 16 | 0.0 | 0.0 | 0.00 | 0.00 | 0.00 | 93 | 1010.6 |
| 20260509133004 | 23 | 16 | 0.0 | 0.0 | 0.00 | 0.00 | 0.00 | 93 | 1010.7 |
| 20260509132005 | 23 | 16 | 0.0 | 0.0 | 0.00 | 0.00 | 0.00 | 93 | 1010.8 |
| 20260509131003 | 23 | 16 | 0.0 | 0.0 | 0.00 | 0.00 | 0.00 | 93 | 1010.9 |
| 20260509125005 | 23 | 16 | 0.0 | 0.0 | 0.00 | 0.00 | 0.00 | 93 | 1010.9 |
| 20260509123003 | 22 | 16 | 0.0 | 0.0 | 0.00 | 0.00 | 0.00 | 93 | 1011.0 |
| 20260509122003 | 22 | 16 | 0.0 | 0.0 | 0.00 | 0.00 | 0.00 | 93 | 1010.8 |
| 20260509121005 | 22 | 16 | 0.0 | 0.0 | 0.00 | 0.00 | 0.00 | 93 | 1010.6 |
| 20260509114004 | 22 | 16 | 0.0 | 0.0 | 0.00 | 0.00 | 0.00 | 93 | 1010.3 |
| 20260509113004 | 22 | 16 | 0.0 | 0.0 | 0.00 | 0.00 | 0.00 | 93 | 1010.1 |
| 20260509112003 | 22 | 16 | 0.0 | 0.0 | 0.00 | 0.00 | 0.00 | 93 | 1010.0 |
| 20260509111004 | 22 | 16 | 0.0 | 0.0 | 0.00 | 0.00 | 0.00 | 93 | 1010.2 |
| 20260509110004 | 22 | 16 | 0.0 | 0.0 | 0.00 | 0.00 | 0.00 | 93 | 1009.8 |
| 20260509105004 | 22 | 16 | 0.0 | 0.0 | 0.00 | 0.00 | 0.00 | 93 | 1009.9 |
| 20260509103005 | 22 | 16 | 0.0 | 0.0 | 0.00 | 0.00 | 0.00 | 93 | 1010.4 |
| 20260509102004 | 22 | 16 | 0.0 | 0.0 | 0.00 | 0.00 | 0.00 | 93 | 1010.5 |
| 20260509101005 | 22 | 16 | 0.0 | 0.0 | 0.00 | 0.00 | 0.00 | 93 | 1010.2 |
| 20260509100005 | 22 | 16 | 0.0 | 0.0 | 0.00 | 0.00 | 0.00 | 93 | 1010.1 |
| 20260509095004 | 22 | 16 | 0.0 | 0.0 | 0.00 | 0.00 | 0.00 | 93 | 1010.1 |
| 20260509093005 | 22 | 16 | 0.0 | 0.0 | 0.00 | 0.00 | 0.00 | 93 | 1009.8 |
| 20260509092004 | 22 | 16 | 0.0 | 0.0 | 0.00 | 0.00 | 0.00 | 93 | 1010.0 |
| 20260509091004 | 22 | 16 | 0.0 | 0.0 | 0.00 | 0.00 | 0.00 | 93 | 1010.5 |
| 20260509085005 | 22 | 16 | 0.0 | 0.0 | 0.00 | 0.00 | 0.00 | 93 | 1010.4 |
| 20260509084004 | 22 | 16 | 0.0 | 0.0 | 0.00 | 0.00 | 0.00 | 93 | 1010.4 |
| 20260509083004 | 22 | 16 | 0.0 | 0.0 | 0.00 | 0.00 | 0.00 | 93 | 1010.3 |
| 20260509082004 | 22 | 16 | 0.0 | 0.0 | 0.00 | 0.00 | 0.00 | 93 | 1010.1 |
| 20260509081005 | 22 | 16 | 0.0 | 0.0 | 0.00 | 0.00 | 0.00 | 93 | 1010.3 |
| 20260509075004 | 22 | 16 | 0.0 | 0.0 | 0.00 | 0.00 | 0.00 | 93 | 1010.5 |
| 20260509074006 | 22 | 16 | 0.0 | 0.0 | 0.00 | 0.00 | 0.00 | 93 | 1010.5 |
| 20260509073004 | 22 | 16 | 0.0 | 6.4 | 0.00 | 0.00 | 0.00 | 93 | 1010.3 |
| 20260509072004 | 22 | 16 | 0.0 | 4.8 | 0.00 | 0.00 | 0.00 | 93 | 1010.1 |
| 20260509071005 | 22 | 16 | 1.6 | 3.2 | 0.00 | 0.00 | 0.00 | 93 | 1010.1 |
| 20260509070004 | 22 | 16 | 0.0 | 6.4 | 0.00 | 0.00 | 0.00 | 93 | 1010.3 |
| 20260509062004 | 22 | 16 | 1.6 | 9.7 | 0.00 | 0.00 | 0.00 | 93 | 1010.2 |
| 20260509061004 | 22 | 16 | 3.2 | 9.7 | 0.00 | 0.00 | 0.00 | 93 | 1010.5 |
| 20260509055004 | 22 | 18 | 4.8 | 8.0 | 0.00 | 0.00 | 0.00 | 92 | 1010.8 |
| 20260509054004 | 22 | 17 | 0.0 | 8.0 | 0.00 | 0.00 | 0.00 | 93 | 1010.8 |
| 20260509053004 | 22 | 18 | 1.6 | 9.7 | 0.00 | 0.00 | 0.00 | 93 | 1010.6 |
| 20260509052004 | 22 | 18 | 3.2 | 11.3 | 0.00 | 0.00 | 0.00 | 92 | 1010.5 |
| 20260509051004 | 22 | 18 | 1.6 | 9.7 | 0.00 | 0.00 | 0.00 | 93 | 1010.8 |
| 20260509050004 | 22 | 17 | 1.6 | 8.0 | 0.00 | 0.00 | 0.00 | 92 | 1011.0 |
| 20260509045004 | 22 | 19 | 0.0 | 6.4 | 0.00 | 0.00 | 0.00 | 92 | 1010.8 |
| 20260509044004 | 22 | 18 | 3.2 | 6.4 | 0.00 | 0.00 | 0.00 | 92 | 1010.6 |
| 20260509043004 | 22 | 18 | 4.8 | 6.4 | 0.00 | 0.00 | 0.00 | 92 | 1010.6 |
| 20260509042004 | 22 | 18 | 0.0 | 6.4 | 0.00 | 0.00 | 0.00 | 92 | 1010.6 |
| 20260509041004 | 22 | 20 | 0.0 | 9.7 | 0.00 | 0.00 | 0.00 | 92 | 1010.4 |
| 20260509035003 | 22 | 18 | 3.2 | 8.0 | 0.00 | 0.00 | 0.00 | 92 | 1010.7 |
| 20260509033003 | 22 | 20 | 1.6 | 8.0 | 0.00 | 0.00 | 0.00 | 91 | 1010.5 |
| 20260509030003 | 22 | 25 | 3.2 | 9.7 | 0.00 | 0.00 | 0.00 | 91 | 1009.9 |
| 20260509025004 | 22 | 25 | 1.6 | 8.0 | 0.00 | 0.00 | 0.00 | 91 | 1009.7 |
| 20260509024004 | 23 | 25 | 1.6 | 9.7 | 0.00 | 0.00 | 0.00 | 90 | 1009.8 |
| 20260509023004 | 23 | 27 | 4.8 | 11.3 | 0.00 | 0.00 | 0.00 | 90 | 1009.8 |
| 20260509022003 | 23 | 31 | 0.0 | 9.7 | 0.00 | 0.00 | 0.00 | 90 | 1009.8 |
| 20260509021004 | 23 | 30 | 4.8 | 9.7 | 0.00 | 0.00 | 0.00 | 89 | 1009.8 |
| 20260509014003 | 23 | 31 | 0.0 | 6.4 | 0.00 | 0.00 | 0.00 | 88 | 1009.6 |
| 20260509013003 | 23 | 31 | 0.0 | 4.8 | 0.00 | 0.00 | 0.00 | 88 | 1009.5 |
| 20260509011003 | 23 | 31 | 0.0 | 6.4 | 0.00 | 0.00 | 0.00 | 87 | 1009.2 |
| 20260509010004 | 23 | 31 | 0.0 | 6.4 | 0.00 | 0.00 | 0.00 | 87 | 1009.1 |
| 20260509005003 | 23 | 31 | 0.0 | 4.8 | 0.00 | 0.00 | 0.00 | 86 | 1009.4 |
| 20260509004003 | 24 | 32 | 0.0 | 3.2 | 0.00 | 0.00 | 0.00 | 86 | 1009.3 |
| 20260509002004 | 24 | 32 | 0.0 | 6.4 | 0.00 | 0.00 | 0.00 | 86 | 1009.4 |
| 20260509001004 | 24 | 31 | 0.0 | 6.4 | 0.00 | 0.00 | 0.00 | 86 | 1009.5 |
| 20260509000004 | 24 | 31 | 6.4 | 8.0 | 0.00 | 0.00 | 0.00 | 85 | 1009.4 |
| 20260508235003 | 25 | 33 | 0.0 | 3.2 | 0.00 | 0.00 | 0.00 | 84 | 1009.7 |
| 20260508234004 | 25 | 32 | 0.0 | 6.4 | 0.00 | 0.00 | 0.00 | 83 | 1009.7 |
| 20260508233003 | 25 | 33 | 1.6 | 4.8 | 0.00 | 0.00 | 0.00 | 82 | 1009.7 |
| 20260508232004 | 25 | 33 | 0.0 | 8.0 | 0.00 | 0.00 | 0.00 | 82 | 1009.5 |
| 20260508231005 | 25 | 33 | 0.0 | 6.4 | 0.00 | 0.00 | 0.00 | 83 | 1009.5 |
| 20260508230004 | 25 | 33 | 4.8 | 8.0 | 0.00 | 0.00 | 0.00 | 83 | 1009.6 |
| 20260508225004 | 25 | 33 | 1.6 | 8.0 | 0.00 | 0.00 | 0.00 | 82 | 1009.4 |
| 20260508224004 | 25 | 33 | 0.0 | 1.6 | 0.00 | 0.00 | 0.00 | 82 | 1009.5 |
| 20260508223004 | 26 | 33 | 0.0 | 1.6 | 0.00 | 0.00 | 0.00 | 83 | 1009.3 |
| 20260508222004 | 26 | 33 | 0.0 | 0.0 | 0.00 | 0.00 | 0.00 | 81 | 1009.5 |
| 20260508221004 | 26 | 33 | 0.0 | 4.8 | 0.00 | 0.00 | 0.00 | 81 | 1009.5 |
| 20260508214004 | 26 | 33 | 0.0 | 4.8 | 0.00 | 0.00 | 0.00 | 79 | 1009.6 |
| 20260508213004 | 26 | 34 | 0.0 | 4.8 | 0.00 | 0.00 | 0.00 | 78 | 1009.5 |
| 20260508212004 | 27 | 34 | 0.0 | 0.0 | 0.00 | 0.00 | 0.00 | 77 | 1009.7 |
| 20260508211005 | 27 | 34 | 0.0 | 0.0 | 0.00 | 0.00 | 0.00 | 76 | 1009.8 |
| 20260508210004 | 27 | 34 | 0.0 | 0.0 | 0.00 | 0.00 | 0.00 | 76 | 1009.9 |
| 20260508205004 | 27 | 34 | 0.0 | 0.0 | 0.00 | 0.00 | 0.00 | 75 | 1010.1 |
| 20260508204005 | 27 | 34 | 0.0 | 1.6 | 0.00 | 0.00 | 0.00 | 75 | 1010.2 |
| 20260508202004 | 27 | 34 | 0.0 | 4.8 | 0.00 | 0.00 | 0.00 | 75 | 1010.3 |